TimeCST,TemperatureF,Dew PointF,Humidity,Sea Level PressureIn,VisibilityMPH,Wind Direction,Wind SpeedMPH,Gust SpeedMPH,PrecipitationIn,Events,Conditions,WindDirDegrees,DateUTC
12:53 AM,14.0,3.9,64,30.25,10.0,SW,8.1,-,N/A,,Clear,220,2013-01-02 06:53:00
1:53 AM,10.9,3.9,73,30.25,10.0,SSW,8.1,-,N/A,,Clear,210,2013-01-02 07:53:00
2:53 AM,10.9,5.0,77,30.24,10.0,SSW,9.2,-,N/A,,Partly Cloudy,200,2013-01-02 08:53:00
3:53 AM,10.9,5.0,77,30.22,9.0,South,9.2,-,N/A,,Clear,190,2013-01-02 09:53:00
4:53 AM,10.9,6.1,81,30.21,9.0,SSW,8.1,-,N/A,,Clear,200,2013-01-02 10:53:00
5:53 AM,12.9,8.1,81,30.21,9.0,SSW,6.9,-,N/A,,Partly Cloudy,210,2013-01-02 11:53:00
6:53 AM,12.0,7.0,80,30.20,9.0,South,8.1,-,N/A,,Clear,190,2013-01-02 12:53:00
7:53 AM,12.9,9.0,84,30.20,10.0,South,6.9,-,N/A,,Partly Cloudy,190,2013-01-02 13:53:00
8:53 AM,19.0,12.9,77,30.19,10.0,SW,8.1,-,N/A,,Partly Cloudy,220,2013-01-02 14:53:00
9:53 AM,23.0,15.1,72,30.19,9.0,SW,12.7,-,N/A,,Partly Cloudy,220,2013-01-02 15:53:00
10:53 AM,27.0,18.0,69,30.20,10.0,WSW,16.1,-,N/A,,Partly Cloudy,240,2013-01-02 16:53:00
11:53 AM,28.0,19.0,69,30.18,10.0,SW,13.8,-,N/A,,Partly Cloudy,220,2013-01-02 17:53:00
12:53 PM,28.9,19.9,69,30.15,10.0,SW,12.7,-,N/A,,Partly Cloudy,220,2013-01-02 18:53:00
1:53 PM,30.9,21.0,67,30.14,10.0,SW,11.5,-,N/A,,Partly Cloudy,220,2013-01-02 19:53:00
2:53 PM,32.0,21.0,64,30.14,10.0,SW,12.7,-,N/A,,Partly Cloudy,230,2013-01-02 20:53:00
3:53 PM,30.9,19.0,61,30.16,10.0,WSW,6.9,-,N/A,,Scattered Clouds,250,2013-01-02 21:53:00
4:53 PM,28.0,16.0,61,30.18,10.0,WSW,5.8,-,N/A,,Mostly Cloudy,250,2013-01-02 22:53:00
5:53 PM,28.0,18.0,66,30.21,10.0,West,8.1,-,N/A,,Overcast,280,2013-01-02 23:53:00
6:53 PM,25.0,17.1,72,30.22,10.0,West,5.8,-,N/A,,Mostly Cloudy,270,2013-01-03 00:53:00
7:53 PM,25.0,18.0,75,30.24,10.0,WSW,8.1,-,N/A,,Overcast,240,2013-01-03 01:53:00
8:53 PM,25.0,18.0,75,30.25,10.0,WSW,6.9,-,N/A,,Overcast,250,2013-01-03 02:53:00
9:53 PM,26.1,19.0,75,30.25,10.0,WSW,4.6,-,N/A,,Overcast,240,2013-01-03 03:53:00
10:53 PM,26.1,19.9,78,30.27,10.0,WSW,5.8,-,N/A,,Overcast,250,2013-01-03 04:53:00
11:53 PM,27.0,21.0,78,30.27,10.0,WSW,5.8,-,N/A,,Overcast,250,2013-01-03 05:53:00